Theta_e
328 326 324 323 323 322 321 320 320 319 318 317 316 316 316 315 315 316 316 315 316 316 317 318 318 319 320 321 323 325 328 330 332 331 332 333 331 327 329 325 327 325 326
321 321 319 319 319 319 317 317 315 315 314 312 312 311 310 310 311 311 311 311 312 313 313 312 313 314 316 317 318 320 321 323 324 328 324 324 326 327 329 330 331 330 329
320 319 319 318 318 317 315 314 313 311 310 310 310 311 312 312 313 311 309 310 311 312 313 314 314 314 314 314 314 315 316 317 319 321 323 322 323 324 326 326 326 325 326
317 317 316 315 314 312 311 311 310 311 311 311 312 312 312 312 309 305 305 306 308 309 310 310 310 310 308 308 310 311 311 312 313 316 318 319 318 319 321 323 323 323 325
315 313 311 309 309 309 310 310 311 311 311 311 311 310 311 310 303 302 303 305 306 308 308 307 306 305 305 305 306 306 306 307 309 311 313 313 315 316 317 317 319 319 319
313 311 309 308 308 309 310 311 310 310 310 310 309 309 309 307 303 303 302 304 306 307 307 306 306 304 305 303 304 303 303 304 305 307 308 309 311 312 313 313 314 316 318
309 308 308 308 309 310 311 310 310 309 309 308 309 308 308 306 305 303 302 305 307 307 308 307 307 307 305 304 303 303 303 303 303 304 304 305 306 307 308 307 308 310 311
308 308 308 309 310 310 310 309 308 308 307 307 307 307 307 307 305 304 303 305 306 306 307 307 307 307 307 306 305 305 305 305 305 304 304 305 306 306 306 305 304 303 305
307 308 309 309 310 309 308 308 306 306 307 307 307 307 307 307 306 305 304 304 305 306 306 307 306 307 307 308 305 304 304 304 305 306 304 303 302 302 302 302 302 303 303
308 308 309 308 308 307 307 306 305 306 307 306 306 307 306 306 306 305 303 304 305 305 305 306 308 308 307 306 303 301 302 302 302 303 303 303 303 303 303 302 302 304 305
308 308 308 308 306 305 305 305 305 306 306 306 306 306 307 307 307 304 302 302 301 301 304 307 308 307 306 305 305 304 303 303 301 300 300 300 301 302 303 304 304 304 305
308 308 307 306 305 305 304 305 305 305 305 306 308 307 307 307 306 303 302 301 301 299 302 304 304 304 305 306 307 306 307 307 303 299 299 299 299 300 302 305 305 305 305
308 306 306 305 304 305 305 305 306 304 305 306 307 306 306 306 305 301 300 301 299 300 302 304 306 305 305 306 305 306 306 306 307 300 299 299 299 299 300 303 306 306 305
306 306 306 305 303 305 305 305 304 305 304 305 303 302 304 303 301 298 298 299 300 302 303 307 306 304 303 303 305 304 304 305 302 301 300 299 299 299 300 302 303 304 304
306 305 305 304 304 303 303 304 304 302 300 300 298 297 297 298 296 296 299 300 300 302 306 306 304 301 301 301 301 302 304 306 304 302 301 301 301 301 302 303 304 303 304
306 305 303 303 302 302 303 305 302 301 300 299 296 295 294 295 296 298 303 302 302 303 306 304 302 301 300 299 299 300 302 304 307 307 306 304 303 302 302 303 303 303 305
302 302 303 302 301 303 305 305 305 301 300 299 297 296 296 296 297 300 303 304 303 303 302 302 301 301 300 299 298 298 299 301 303 306 311 308 307 306 304 305 305 305 307
301 299 300 300 302 302 303 303 304 302 301 302 299 297 297 297 297 298 302 303 302 301 300 300 300 300 300 300 300 299 298 298 299 303 306 308 312 311 310 309 308 309 310
301 301 300 302 301 300 302 303 301 298 297 298 298 298 296 296 299 298 300 299 297 298 297 299 302 302 301 302 301 301 301 300 299 300 302 305 309 313 312 310 311 311 310
299 297 297 302 301 301 301 301 298 295 295 295 294 291 292 293 296 298 295 295 295 296 295 296 301 301 301 301 301 301 300 300 300 300 304 307 312 315 313 313 314 314 315
299 299 297 301 299 299 299 297 294 292 293 292 292 290 291 292 293 294 294 293 293 295 296 298 299 299 298 298 298 298 298 297 297 299 305 306 314 317 317 314 314 315 312
298 298 298 298 297 297 297 295 293 292 293 294 293 291 290 293 292 293 297 296 295 296 298 298 297 296 296 295 295 295 295 294 293 298 303 306 312 313 316 317 313 313 313
297 297 296 296 295 294 294 293 292 292 292 294 294 293 293 295 295 295 296 297 298 297 296 296 295 294 294 293 292 292 292 291 290 296 300 305 311 310 313 316 315 314 311
295 295 294 293 292 293 292 291 290 289 290 291 292 295 297 297 296 296 296 296 295 295 295 295 294 292 292 291 290 289 290 292 291 293 299 305 306 308 310 312 313 313 315
294 294 293 292 292 292 293 293 292 291 291 293 294 294 294 294 294 294 294 294 294 294 294 294 293 291 290 289 287 287 291 293 295 296 298 301 301 304 307 309 309 311 313
293 293 293 292 292 293 294 295 295 295 294 294 293 293 292 292 292 292 292 292 293 293 293 292 292 290 288 287 288 288 290 292 293 295 297 298 298 300 302 303 305 307 308
Wind_Speed
18 18 17 15 13 12 10 8 8 8 10 9 9 8 9 11 12 13 14 16 17 18 18 20 22 21 22 23 23 23 20 16 11 18 23 26 17 21 17 20 16 20 20
17 17 16 14 11 10 8 8 8 9 9 10 10 10 10 12 12 13 15 16 18 18 20 21 22 23 23 24 24 24 25 21 19 17 22 27 31 24 21 26 16 24 20
15 14 12 11 10 9 8 8 7 7 8 8 10 10 11 12 12 11 15 17 18 18 19 20 22 23 24 24 24 25 26 26 26 25 22 21 21 23 24 23 33 35 34
13 12 11 10 9 10 9 9 10 9 9 10 10 11 11 12 8 16 17 18 18 19 20 20 21 20 20 22 22 23 25 27 26 26 25 24 25 22 24 23 21 21 25
10 11 10 10 11 14 11 8 9 9 10 10 12 11 11 10 13 17 18 19 18 19 19 19 20 22 24 21 19 19 21 23 25 26 26 26 23 21 19 19 20 20 21
12 12 12 13 12 8 9 10 11 12 13 12 11 12 11 6 13 18 19 16 16 17 18 18 19 19 18 21 22 22 20 22 24 24 25 21 26 26 23 21 21 19 11
9 9 10 10 9 8 8 9 11 12 12 12 11 11 10 7 15 17 22 16 18 18 20 20 20 19 18 17 19 22 23 24 26 27 27 26 26 24 19 20 17 16 14
11 11 10 10 9 9 10 11 11 11 10 10 10 10 9 9 16 21 25 19 18 20 21 21 23 23 21 20 21 24 25 25 24 23 25 25 26 22 15 13 14 17 21
9 8 9 9 8 9 11 10 10 10 10 10 10 11 12 13 18 20 22 19 21 23 23 24 23 24 27 26 25 26 28 31 28 28 31 28 25 29 28 23 20 17 12
9 8 7 7 8 10 10 9 9 9 10 11 12 13 13 14 16 19 23 22 24 26 26 24 25 18 26 32 33 28 28 33 30 29 31 20 20 22 25 27 23 18 14
7 5 7 8 7 8 7 8 8 11 12 14 13 13 11 13 16 19 21 24 23 26 24 25 25 29 33 33 31 31 29 34 33 29 26 23 20 19 21 22 24 22 17
5 6 6 7 7 6 7 8 8 12 12 11 11 13 13 15 17 21 27 25 22 20 22 23 26 30 32 30 30 34 34 36 29 23 18 15 15 19 24 15 19 23 22
5 5 5 5 6 5 6 7 9 11 12 15 15 15 16 17 17 23 26 26 26 23 19 21 23 25 24 25 30 32 34 31 25 12 10 10 13 16 16 19 11 6 12
3 4 4 5 7 6 5 6 8 10 15 14 15 16 17 16 18 24 24 24 25 19 19 17 20 24 23 25 29 31 33 29 25 11 7 9 9 8 8 10 6 6 10
2 3 4 5 6 5 6 4 7 9 11 12 12 12 16 16 20 21 18 21 25 20 17 18 24 30 30 31 32 32 30 27 21 17 12 10 9 6 3 5 6 8 10
2 4 5 5 6 6 6 5 3 6 12 11 13 13 12 13 18 16 11 13 25 20 18 22 24 25 26 28 28 30 28 29 24 14 13 11 9 8 7 9 7 8 10
3 4 5 6 6 5 6 7 6 4 6 6 13 13 13 13 19 16 13 13 19 20 22 21 22 25 25 26 28 28 29 31 32 29 16 9 6 6 6 6 6 6 8
2 4 4 5 5 5 6 5 6 7 8 7 10 13 14 13 19 22 19 15 18 23 22 21 22 24 26 27 27 28 32 32 33 31 31 29 13 6 7 8 5 6 7
2 4 4 4 5 4 4 5 7 7 8 9 11 11 15 17 17 19 19 20 20 21 22 22 23 25 26 26 27 28 28 29 30 29 30 32 28 20 7 8 6 6 6
1 5 4 4 5 4 5 6 7 8 8 10 12 15 19 17 17 17 20 19 19 20 22 21 24 26 27 28 29 29 29 30 31 31 33 33 28 18 16 16 12 10 10
1 2 2 2 5 4 4 6 7 7 8 9 10 14 14 12 15 16 18 20 17 18 20 21 25 26 28 29 30 30 29 28 28 29 30 34 32 24 16 18 17 12 14
1 2 2 4 4 4 5 5 6 6 7 7 9 12 16 13 15 14 15 17 16 18 19 22 25 26 28 29 30 30 29 29 28 30 32 32 29 29 26 15 17 16 14
3 3 3 4 5 5 6 5 6 6 7 8 8 9 10 11 14 16 16 16 16 19 20 22 25 27 28 27 28 28 28 29 26 30 28 31 24 29 26 23 22 11 9
5 5 5 6 6 6 6 6 7 9 8 8 8 9 11 12 14 15 16 16 18 18 20 22 23 28 28 29 28 27 26 31 28 29 26 26 26 26 24 23 24 23 8
6 6 7 7 7 6 5 5 5 6 6 7 8 10 12 13 14 15 17 17 17 18 20 21 24 26 28 29 31 32 30 30 31 32 26 25 26 23 23 22 25 21 21
8 8 8 8 7 6 5 5 7 7 8 10 11 12 13 14 15 15 17 18 18 18 19 21 23 25 29 29 34 36 33 31 32 32 28 26 27 24 24 24 24 22 22
Wind_Direction
101 96 90 85 82 77 69 55 38 25 15 0 345 338 324 329 331 325 319 310 309 305 306 305 308 310 302 302 300 295 288 298 298 300 287 291 316 282 270 216 241 226 232
93 89 87 84 77 67 55 36 22 14 359 346 335 337 337 333 331 323 317 316 313 314 312 311 308 308 312 304 300 297 302 293 278 285 287 284 288 288 269 281 267 260 246
92 84 77 72 68 56 33 15 6 2 349 342 338 338 346 337 342 340 340 328 324 319 317 316 313 313 309 305 305 300 297 298 299 293 293 284 274 277 277 278 273 280 270
87 80 68 58 49 41 21 8 355 2 358 355 356 359 351 350 10 351 342 333 330 325 320 320 319 317 339 327 316 311 304 305 302 299 285 277 273 270 262 265 267 260 255
76 66 49 34 35 26 15 5 7 13 8 357 1 356 352 359 8 357 351 342 334 329 326 323 314 313 314 315 314 313 314 299 294 292 289 291 289 282 282 285 281 275 266
45 30 27 23 23 6 8 14 11 7 3 1 1 355 353 16 1 352 352 337 333 327 329 325 321 318 322 314 307 304 299 295 293 291 290 290 292 301 315 323 327 319 305
36 26 26 17 18 14 14 12 7 6 4 1 357 356 360 36 356 350 351 339 336 331 329 326 322 324 317 311 309 303 298 290 281 280 279 280 286 291 306 310 313 313 304
27 23 18 18 21 11 8 9 6 3 356 354 359 353 351 341 341 343 344 341 334 328 326 320 315 311 313 305 306 303 299 295 288 277 271 274 272 276 279 287 291 295 291
30 24 23 19 14 5 7 6 8 357 1 354 356 352 347 341 341 335 339 333 330 328 326 324 317 305 303 305 301 292 291 286 286 287 275 267 268 272 271 277 274 268 271
29 27 20 13 7 10 8 6 4 356 12 358 355 356 347 339 340 345 345 339 330 328 324 320 315 326 331 322 317 301 287 284 284 280 281 290 271 269 264 257 258 266 250
30 25 17 9 5 11 7 5 3 4 3 359 352 342 353 353 350 347 349 345 335 325 323 325 327 324 325 327 325 318 302 308 294 282 275 272 267 264 268 255 254 245 254
30 29 11 12 3 12 17 9 1 10 358 326 352 1 358 358 360 346 342 352 352 336 326 325 325 332 336 340 339 337 337 328 302 275 270 266 257 258 259 284 248 240 243
35 14 7 4 2 14 14 11 13 6 342 1 4 0 357 0 357 347 353 357 352 346 331 327 341 344 352 350 356 355 349 341 330 270 270 282 274 274 271 273 279 235 259
29 11 1 7 6 15 2 21 4 0 5 2 0 349 350 356 356 350 351 353 351 349 344 347 354 360 6 4 2 357 354 3 13 20 341 330 326 322 296 293 335 297 279
20 360 5 7 7 4 355 354 356 31 14 5 356 343 341 347 345 345 350 354 358 360 9 16 15 9 5 2 359 355 355 359 14 16 11 4 359 349 326 331 321 313 286
312 24 18 6 357 4 351 342 215 30 14 11 11 7 355 342 351 353 1 3 17 20 25 23 11 5 2 0 357 351 353 354 353 10 14 12 360 349 328 315 321 291 293
29 6 9 23 7 2 350 360 0 24 356 356 13 2 2 4 16 21 24 17 17 23 26 15 5 1 360 0 360 356 350 352 355 360 338 346 323 314 329 324 307 295 295
15 9 18 9 350 355 16 354 7 7 353 1 348 0 2 23 28 25 34 25 22 23 20 8 5 2 1 358 356 353 350 357 358 356 356 355 331 360 319 310 279 301 303
10 1 355 349 21 29 5 16 31 20 13 4 360 3 358 22 32 16 33 31 24 17 12 7 7 4 2 1 359 356 355 353 353 351 350 349 347 352 8 12 345 311 329
17 12 20 351 14 23 31 34 35 26 28 23 17 5 9 12 22 21 26 26 25 19 12 3 5 5 4 2 360 357 356 355 351 349 346 345 339 356 358 360 3 352 22
3 18 30 15 39 32 42 51 54 42 39 34 25 15 30 23 20 26 26 20 18 13 10 5 9 7 6 4 2 359 357 353 352 346 346 347 355 5 31 39 32 38 39
91 70 53 58 56 56 56 60 59 47 37 33 25 15 28 30 21 15 16 16 17 17 15 14 14 13 10 6 3 360 357 354 351 350 345 342 357 359 1 27 42 43 39
104 111 104 78 77 76 69 65 63 56 43 36 31 20 21 26 25 24 22 19 21 22 20 20 19 15 12 9 6 4 0 354 348 345 341 339 357 358 0 9 14 53 61
111 113 113 96 84 80 80 76 71 68 62 51 31 17 32 31 28 25 24 24 25 26 25 25 23 20 16 13 10 7 4 7 4 353 359 355 357 357 355 2 6 13 29
119 117 114 103 97 94 94 108 100 67 60 63 47 43 36 33 32 29 28 27 29 29 29 27 24 20 17 14 12 13 19 22 21 16 11 6 4 4 2 2 359 359 3
116 119 117 111 102 89 86 81 82 74 66 61 55 49 42 36 34 32 30 29 28 30 28 25 23 20 18 14 16 20 24 26 25 22 19 12 12 10 11 7 5 4 358